• In Belarus
  • List of Countries
  • For 7 days
  • Water Temperature
  • Satellite Maps
  • Weather Map
  • Weather Widgets
  • user-avatar
    Login

    Hourly Weather Caprivi

    Today, 18 December, Monday

    Time Temperature Precipitation Wind Pressure Humidity
    00:00 +27°C° 0 mm 1 mps 680 mmHg 47%
    01:00 +27°C° 0 mm 1 mps 679 mmHg 48%
    02:00 +26°C° 0 mm 1 mps 679 mmHg 48%
    03:00 +26°C° 0 mm 1 mps 679 mmHg 50%
    04:00 +25°C° 0 mm 1 mps 679 mmHg 53%
    05:00 +25°C° 0 mm 1 mps 679 mmHg 55%
    06:00 +26°C° 0 mm 1 mps 679 mmHg 52%
    07:00 +28°C° 0 mm 2 mps 680 mmHg 49%
    08:00 +30°C° 0 mm 2 mps 681 mmHg 45%
    09:00 +32°C° 0 mm 2 mps 681 mmHg 38%
    10:00 +35°C° 0 mm 2 mps 681 mmHg 31%
    11:00 +37°C° 0 mm 3 mps 681 mmHg 23%
    12:00 +37°C° 0 mm 3 mps 680 mmHg 24%
    13:00 +36°C° 0 mm 3 mps 679 mmHg 25%
    14:00 +36°C° 0 mm 2 mps 679 mmHg 26%
    15:00 +36°C° 0 mm 2 mps 679 mmHg 26%
    16:00 +36°C° 0 mm 2 mps 678 mmHg 26%
    17:00 +35°C° 0 mm 1 mps 678 mmHg 26%
    18:00 +33°C° 0 mm 1 mps 678 mmHg 29%
    19:00 +31°C° 0 mm 1 mps 678 mmHg 32%
    20:00 +30°C° 0 mm 1 mps 678 mmHg 36%
    21:00 +29°C° 0 mm 1 mps 678 mmHg 37%
    22:00 +29°C° 0 mm 1 mps 678 mmHg 39%
    23:00 +28°C° 0 mm 1 mps 679 mmHg 41%

    Tomorrow, 19 December, Tuesday

    Time Temperature Precipitation Wind Pressure Humidity
    00:00 +28°C° 0 mm 1 mps 678 mmHg 43%
    01:00 +27°C° 0 mm 1 mps 678 mmHg 46%
    02:00 +26°C° 0 mm 1 mps 677 mmHg 49%
    03:00 +26°C° 0 mm 1 mps 677 mmHg 51%
    04:00 +26°C° 0 mm 1 mps 677 mmHg 53%
    05:00 +25°C° 0 mm 1 mps 677 mmHg 55%
    06:00 +27°C° 0 mm 2 mps 678 mmHg 51%
    07:00 +29°C° 0 mm 2 mps 679 mmHg 47%
    08:00 +30°C° 0 mm 3 mps 679 mmHg 44%
    09:00 +33°C° 0 mm 3 mps 679 mmHg 38%
    10:00 +35°C° 0 mm 3 mps 680 mmHg 32%
    11:00 +37°C° 0 mm 3 mps 680 mmHg 26%
    12:00 +38°C° 0 mm 3 mps 679 mmHg 25%
    13:00 +38°C° 0 mm 2 mps 679 mmHg 24%
    14:00 +38°C° 0 mm 2 mps 678 mmHg 23%
    15:00 +36°C° 0 mm 1 mps 678 mmHg 25%
    16:00 +35°C° 0 mm 1 mps 677 mmHg 27%
    17:00 +34°C° 0 mm 1 mps 677 mmHg 30%
    18:00 +32°C° 0.4 mm 1 mps 677 mmHg 36%
    19:00 +31°C° 0.4 mm 2 mps 677 mmHg 42%
    20:00 +29°C° 0.4 mm 3 mps 677 mmHg 48%
    21:00 +28°C° 0.4 mm 2 mps 678 mmHg 52%
    22:00 +28°C° 0.4 mm 2 mps 678 mmHg 56%
    23:00 +27°C° 0.4 mm 2 mps 679 mmHg 61%

    Day after tomorrow, 20 December, Wednesday

    Time Temperature Precipitation Wind Pressure Humidity
    00:00 +26°C° 0.1 mm 1 mps 678 mmHg 62%
    01:00 +26°C° 0.1 mm 1 mps 678 mmHg 64%
    02:00 +24°C° 0.1 mm 0 mps 678 mmHg 66%
    03:00 +25°C° 0.3 mm 1 mps 678 mmHg 69%
    04:00 +25°C° 0.3 mm 1 mps 678 mmHg 71%
    05:00 +24°C° 0.3 mm 1 mps 677 mmHg 74%
    06:00 +25°C° 0 mm 2 mps 678 mmHg 70%
    07:00 +26°C° 0 mm 2 mps 679 mmHg 67%
    08:00 +28°C° 0 mm 3 mps 679 mmHg 63%
    09:00 +30°C° 0 mm 3 mps 680 mmHg 54%
    10:00 +34°C° 0 mm 3 mps 680 mmHg 44%
    11:00 +36°C° 0 mm 3 mps 680 mmHg 35%
    12:00 +36°C° 0 mm 2 mps 680 mmHg 34%
    13:00 +36°C° 0 mm 2 mps 679 mmHg 34%
    14:00 +36°C° 0 mm 2 mps 679 mmHg 33%
    15:00 +36°C° 0 mm 2 mps 678 mmHg 33%
    16:00 +36°C° 0 mm 2 mps 678 mmHg 34%
    17:00 +35°C° 0 mm 1 mps 678 mmHg 34%
    18:00 +33°C° 0.1 mm 1 mps 678 mmHg 39%
    19:00 +31°C° 0.1 mm 2 mps 678 mmHg 45%
    20:00 +30°C° 0.1 mm 2 mps 678 mmHg 50%
    21:00 +28°C° 1.4 mm 2 mps 679 mmHg 60%
    22:00 +27°C° 1.4 mm 2 mps 679 mmHg 69%
    23:00 +25°C° 1.4 mm 2 mps 680 mmHg 78%

    21 December, Thursday

    Time Temperature Precipitation Wind Pressure Humidity
    00:00 +25°C° 1.1 mm 2 mps 679 mmHg 80%
    01:00 +25°C° 1.1 mm 2 mps 679 mmHg 81%
    02:00 +24°C° 1.1 mm 1 mps 679 mmHg 82%
    03:00 +24°C° 0.1 mm 2 mps 679 mmHg 84%
    04:00 +24°C° 0.1 mm 2 mps 679 mmHg 85%
    05:00 +23°C° 0.1 mm 2 mps 679 mmHg 87%
    06:00 +24°C° 0.1 mm 3 mps 680 mmHg 83%
    07:00 +25°C° 0.1 mm 3 mps 680 mmHg 79%
    08:00 +25°C° 0.1 mm 3 mps 681 mmHg 75%
    09:00 +27°C° 0.8 mm 3 mps 681 mmHg 68%
    10:00 +28°C° 0.8 mm 3 mps 681 mmHg 62%
    11:00 +30°C° 0.8 mm 3 mps 681 mmHg 56%
    12:00 +30°C° 1.7 mm 2 mps 681 mmHg 56%
    13:00 +30°C° 1.7 mm 2 mps 680 mmHg 56%
    14:00 +30°C° 1.7 mm 1 mps 679 mmHg 56%
    15:00 +30°C° 0.5 mm 1 mps 679 mmHg 58%
    16:00 +29°C° 0.5 mm 1 mps 679 mmHg 61%
    17:00 +28°C° 0.5 mm 1 mps 678 mmHg 63%
    18:00 +27°C° 0 mm 1 mps 678 mmHg 68%
    19:00 +27°C° 0 mm 1 mps 679 mmHg 72%
    20:00 +26°C° 0 mm 1 mps 679 mmHg 76%
    21:00 +25°C° 0 mm 1 mps 679 mmHg 76%
    22:00 +25°C° 0 mm 1 mps 680 mmHg 76%
    23:00 +25°C° 0 mm 1 mps 680 mmHg 77%

    22 December, Friday

    Time Temperature Precipitation Wind Pressure Humidity
    00:00 +24°C° 0 mm 2 mps 679 mmHg 78%
    01:00 +24°C° 0 mm 2 mps 679 mmHg 80%
    02:00 +23°C° 0 mm 2 mps 678 mmHg 82%
    03:00 +23°C° 0 mm 2 mps 678 mmHg 84%
    04:00 +23°C° 0 mm 2 mps 678 mmHg 85%
    05:00 +21°C° 0 mm 2 mps 678 mmHg 87%
    06:00 +24°C° 0 mm 2 mps 679 mmHg 82%
    07:00 +25°C° 0 mm 3 mps 679 mmHg 76%
    08:00 +26°C° 0 mm 3 mps 680 mmHg 71%
    09:00 +28°C° 0 mm 3 mps 680 mmHg 62%
    10:00 +30°C° 0 mm 3 mps 680 mmHg 53%
    11:00 +33°C° 0 mm 3 mps 680 mmHg 44%
    12:00 +34°C° 0 mm 2 mps 680 mmHg 42%
    13:00 +35°C° 0 mm 2 mps 679 mmHg 39%
    14:00 +36°C° 0 mm 2 mps 678 mmHg 37%
    15:00 +35°C° 0 mm 2 mps 678 mmHg 38%
    16:00 +35°C° 0 mm 2 mps 678 mmHg 40%
    17:00 +34°C° 0 mm 2 mps 677 mmHg 41%
    18:00 +32°C° 0 mm 2 mps 677 mmHg 45%
    19:00 +30°C° 0 mm 2 mps 677 mmHg 49%
    20:00 +29°C° 0 mm 2 mps 677 mmHg 53%
    21:00 +28°C° 0.1 mm 2 mps 678 mmHg 56%
    22:00 +27°C° 0.1 mm 2 mps 678 mmHg 59%
    23:00 +27°C° 0.1 mm 2 mps 678 mmHg 63%

    23 December, Saturday

    Time Temperature Precipitation Wind Pressure Humidity
    00:00 +26°C° 0.7 mm 2 mps 677 mmHg 67%
    01:00 +25°C° 0.7 mm 2 mps 677 mmHg 72%
    02:00 +24°C° 0.7 mm 2 mps 677 mmHg 77%
    03:00 +24°C° 0.3 mm 2 mps 676 mmHg 80%
    04:00 +24°C° 0.3 mm 2 mps 676 mmHg 82%
    05:00 +23°C° 0.3 mm 2 mps 676 mmHg 85%
    06:00 +24°C° 0.1 mm 2 mps 677 mmHg 81%
    07:00 +25°C° 0.1 mm 2 mps 677 mmHg 76%
    08:00 +26°C° 0.1 mm 3 mps 678 mmHg 72%
    09:00 +29°C° 0 mm 3 mps 678 mmHg 62%
    10:00 +31°C° 0 mm 3 mps 678 mmHg 52%
    11:00 +35°C° 0 mm 3 mps 678 mmHg 42%
    12:00 +35°C° 0 mm 3 mps 678 mmHg 41%
    13:00 +35°C° 0 mm 2 mps 677 mmHg 39%
    14:00 +34°C° 0 mm 1 mps 677 mmHg 37%
    15:00 +34°C° 0 mm 1 mps 676 mmHg 39%
    16:00 +33°C° 0 mm 1 mps 676 mmHg 41%
    17:00 +31°C° 0 mm 0 mps 676 mmHg 43%
    18:00 +31°C° 0.1 mm 1 mps 676 mmHg 48%
    19:00 +30°C° 0.1 mm 1 mps 676 mmHg 53%
    20:00 +28°C° 0.1 mm 2 mps 676 mmHg 58%
    21:00 +27°C° 1.4 mm 1 mps 676 mmHg 65%
    22:00 +26°C° 1.4 mm 1 mps 676 mmHg 72%
    23:00 +25°C° 1.4 mm 1 mps 677 mmHg 80%
    Show more